AFL1210 LPPT-UUEE

Flight info

Callsign AFL1210
Flight time N/A
Altitude 37000
Route ORVED DCT TOFEF N870 SEROX L110 DIBER UN870 SOSUR DCT NOSTA DCT TZO DCT UNIMI DCT MEBEK N871 BEPAS DCT ENORU DCT ABAKU N871 MULZA N869 GORAT/K0895F370 N869 RATIN L999 AGLAN M864 DIPOP DIPOP3E
Aircraft A359/H-SDE2E3GHIJ3J4J5LM1ORWXY/LB1D1

Departure

Time N/A
Airport Lisbon Humberto Delgado Airport (LPPT)

Arrival

Time 2026-05-05 20:17
Airport Sheremetyevo International Airport (UUEE)
Time Latitude Longitude Altitude Speed Heading
2026-05-05 19:38 53.65932 25.76591 36845 ft 518 kts 68°
2026-05-05 19:38 53.68710 25.87806 36845 ft 518 kts 69°
2026-05-05 19:39 53.75639 26.16132 36851 ft 518 kts 69°
2026-05-05 19:39 53.86482 26.61112 36859 ft 517 kts 69°
2026-05-05 19:40 53.99996 27.04257 36872 ft 515 kts 61°
2026-05-05 19:40 54.13493 27.46879 36871 ft 514 kts 66°
2026-05-05 19:41 54.25294 27.91477 36875 ft 513 kts 67°
2026-05-05 19:41 54.36823 28.35814 36872 ft 513 kts 68°
2026-05-05 19:42 54.49117 28.80106 36864 ft 513 kts 64°
2026-05-05 19:42 54.62159 29.23794 36856 ft 514 kts 65°
2026-05-05 19:43 54.75121 29.68124 36846 ft 515 kts 65°
2026-05-05 19:43 54.87925 30.12756 36849 ft 517 kts 65°
2026-05-05 19:44 55.00526 30.57528 36849 ft 518 kts 65°
2026-05-05 19:44 55.13074 31.02995 36848 ft 519 kts 66°
2026-05-05 19:45 55.25406 31.48573 36841 ft 520 kts 66°
2026-05-05 19:45 55.37600 31.94561 36843 ft 520 kts 66°
2026-05-05 19:46 55.49661 32.40986 36839 ft 520 kts 67°
2026-05-05 19:46 55.59072 32.77891 36843 ft 521 kts 67°
2026-05-05 19:47 55.66150 33.06052 36841 ft 521 kts 67°
2026-05-05 19:47 55.75334 33.51899 36837 ft 522 kts 75°
2026-05-05 19:48 55.77375 33.64311 36605 ft 522 kts 75°
2026-05-05 19:48 55.78378 33.70415 36221 ft 522 kts 75°
2026-05-05 19:48 55.79395 33.76612 35839 ft 520 kts 75°
2026-05-05 19:48 55.80405 33.82790 35457 ft 519 kts 75°
2026-05-05 19:49 55.81414 33.88983 35076 ft 519 kts 75°
2026-05-05 19:49 55.82077 33.93063 34828 ft 520 kts 75°
2026-05-05 19:49 55.83402 34.01258 34344 ft 520 kts 75°
2026-05-05 19:49 55.84410 34.07515 33978 ft 521 kts 75°
2026-05-05 19:50 55.85398 34.13666 33591 ft 521 kts 75°
2026-05-05 19:50 55.86399 34.19909 33175 ft 522 kts 75°
2026-05-05 19:50 55.87398 34.26159 32771 ft 523 kts 75°
2026-05-05 19:50 55.88361 34.32325 32377 ft 524 kts 77°
2026-05-05 19:51 55.88907 34.38719 31979 ft 523 kts 86°
2026-05-05 19:51 55.89160 34.45216 31587 ft 525 kts 88°
2026-05-05 19:51 55.89319 34.51737 31202 ft 527 kts 89°
2026-05-05 19:51 55.89430 34.58275 30822 ft 528 kts 90°
2026-05-05 19:52 55.89524 34.64831 30437 ft 529 kts 90°
2026-05-05 19:52 55.89615 34.71321 29995 ft 529 kts 90°
2026-05-05 19:52 55.89713 34.77908 29440 ft 530 kts 90°
2026-05-05 19:52 55.89817 34.84480 28880 ft 530 kts 89°
2026-05-05 19:53 55.89924 34.90996 28329 ft 528 kts 89°
2026-05-05 19:53 55.90031 34.97547 27785 ft 525 kts 89°
2026-05-05 19:53 55.90135 35.04022 27252 ft 520 kts 90°
2026-05-05 19:53 55.90253 35.10461 26729 ft 516 kts 89°
2026-05-05 19:54 55.90388 35.16829 26216 ft 512 kts 89°
2026-05-05 19:54 55.90504 35.23070 25721 ft 508 kts 89°
2026-05-05 19:54 55.90606 35.29337 25228 ft 504 kts 90°
2026-05-05 19:54 55.90759 35.40137 24387 ft 499 kts 90°
2026-05-05 19:55 55.90911 35.52436 23447 ft 488 kts 90°
2026-05-05 19:55 55.91042 35.64309 22363 ft 472 kts 90°
2026-05-05 19:55 55.91154 35.75807 21312 ft 457 kts 91°
2026-05-05 19:55 55.91216 35.82517 20696 ft 449 kts 91°
2026-05-05 19:56 55.91464 35.88039 20087 ft 445 kts 84°
2026-05-05 19:56 55.91872 35.93420 19468 ft 426 kts 84°
2026-05-05 19:56 55.92272 35.98521 18863 ft 404 kts 84°
2026-05-05 19:56 55.92642 36.03335 18288 ft 395 kts 84°
2026-05-05 19:57 55.93009 36.08195 17642 ft 396 kts 84°
2026-05-05 19:57 55.93256 36.11426 17198 ft 396 kts 84°
2026-05-05 19:57 55.94400 36.17648 16311 ft 395 kts 60°
2026-05-05 19:57 55.96120 36.21425 15679 ft 391 kts 40°
2026-05-05 19:58 55.98338 36.23948 15045 ft 366 kts 20°
2026-05-05 19:58 56.00664 36.25211 14452 ft 345 kts 11°
2026-05-05 19:58 56.02943 36.26308 13860 ft 332 kts 13°
2026-05-05 19:58 56.05127 36.27518 13257 ft 329 kts 15°
2026-05-05 19:59 56.07315 36.28861 12623 ft 333 kts 17°
2026-05-05 19:59 56.09493 36.30354 12007 ft 339 kts 21°
2026-05-05 19:59 56.11545 36.32709 11418 ft 371 kts 40°
2026-05-05 19:59 56.13133 36.36500 10835 ft 393 kts 65°
2026-05-05 20:00 56.13768 36.41211 10255 ft 387 kts 92°
2026-05-05 20:00 56.13344 36.45864 9908 ft 371 kts 111°
2026-05-05 20:00 56.12617 36.50187 9825 ft 353 kts 112°
2026-05-05 20:00 56.11956 36.54254 9818 ft 333 kts 111°
2026-05-05 20:01 56.11353 36.58171 9822 ft 320 kts 111°
2026-05-05 20:01 56.10793 36.62020 9826 ft 319 kts 110°
2026-05-05 20:01 56.10276 36.65896 9833 ft 319 kts 108°
2026-05-05 20:01 56.09813 36.69803 9828 ft 320 kts 107°
2026-05-05 20:02 56.09412 36.73678 9799 ft 321 kts 105°
2026-05-05 20:02 56.09066 36.77631 9714 ft 321 kts 103°
2026-05-05 20:02 56.08786 36.81613 9578 ft 321 kts 101°
2026-05-05 20:02 56.08576 36.85592 9457 ft 321 kts 99°
2026-05-05 20:03 56.08439 36.89598 9282 ft 321 kts 97°
2026-05-05 20:03 56.08383 36.93541 9025 ft 320 kts 94°
2026-05-05 20:03 56.08411 36.97519 8766 ft 319 kts 92°
2026-05-05 20:03 56.08531 37.01477 8498 ft 317 kts 89°
2026-05-05 20:04 56.08750 37.05409 8257 ft 316 kts 86°
2026-05-05 20:04 56.09076 37.09291 8005 ft 314 kts 83°
2026-05-05 20:04 56.09516 37.13071 7840 ft 304 kts 79°
2026-05-05 20:04 56.10052 37.16642 7613 ft 297 kts 75°
2026-05-05 20:05 56.10708 37.20094 7450 ft 289 kts 71°
2026-05-05 20:05 56.11499 37.23419 7280 ft 293 kts 65°
2026-05-05 20:05 56.12479 37.26647 7153 ft 291 kts 59°
2026-05-05 20:05 56.13608 37.29576 7032 ft 280 kts 54°
2026-05-05 20:06 56.14656 37.32476 6908 ft 274 kts 60°
2026-05-05 20:06 56.15597 37.35447 6781 ft 274 kts 65°
2026-05-05 20:06 56.16337 37.38585 6584 ft 273 kts 72°
2026-05-05 20:06 56.16941 37.41766 6328 ft 272 kts 75°
2026-05-05 20:07 56.17492 37.45001 6058 ft 271 kts 76°
2026-05-05 20:07 56.18015 37.48269 5801 ft 270 kts 77°
2026-05-05 20:07 56.18510 37.51471 5537 ft 268 kts 77°
2026-05-05 20:07 56.18996 37.54690 5273 ft 266 kts 77°
2026-05-05 20:08 56.19197 37.57953 5016 ft 260 kts 102°
2026-05-05 20:08 56.18505 37.60781 4912 ft 240 kts 136°
2026-05-05 20:08 56.17405 37.62932 4802 ft 228 kts 142°
2026-05-05 20:08 56.16295 37.64915 4658 ft 220 kts 142°
2026-05-05 20:09 56.15258 37.66783 4598 ft 206 kts 142°
2026-05-05 20:09 56.14278 37.68567 4492 ft 196 kts 141°
2026-05-05 20:09 56.13349 37.70271 4376 ft 185 kts 142°
2026-05-05 20:09 56.12474 37.71883 4216 ft 176 kts 142°
2026-05-05 20:10 56.11642 37.73412 4061 ft 172 kts 142°
2026-05-05 20:10 56.10808 37.74939 3932 ft 171 kts 142°
2026-05-05 20:10 56.09936 37.76381 3804 ft 168 kts 151°
2026-05-05 20:10 56.08908 37.77148 3691 ft 157 kts 180°
2026-05-05 20:11 56.07850 37.76955 3649 ft 151 kts 203°
2026-05-05 20:11 56.06843 37.76377 3602 ft 152 kts 206°
2026-05-05 20:11 56.05841 37.75769 3546 ft 153 kts 205°
2026-05-05 20:11 56.04827 37.75168 3507 ft 152 kts 205°
2026-05-05 20:12 56.03847 37.74598 3448 ft 147 kts 205°
2026-05-05 20:12 56.02894 37.74023 3307 ft 142 kts 207°
2026-05-05 20:12 56.02097 37.73099 3163 ft 133 kts 231°
2026-05-05 20:12 56.01654 37.71705 3120 ft 129 kts 256°
2026-05-05 20:13 56.01413 37.70141 3072 ft 131 kts 258°
2026-05-05 20:13 56.01190 37.68579 3007 ft 131 kts 258°
2026-05-05 20:13 56.00964 37.66997 2993 ft 132 kts 258°
2026-05-05 20:13 56.00728 37.65408 2972 ft 133 kts 257°
2026-05-05 20:14 56.00477 37.63807 2814 ft 133 kts 257°
2026-05-05 20:14 56.00234 37.62234 2651 ft 133 kts 257°
2026-05-05 20:14 55.99998 37.60631 2467 ft 133 kts 258°
2026-05-05 20:14 55.99760 37.59025 2297 ft 133 kts 257°
2026-05-05 20:15 55.99601 37.57956 2177 ft 134 kts 257°
2026-05-05 20:15 55.99283 37.55819 1935 ft 135 kts 257°
2026-05-05 20:15 55.99041 37.54199 1761 ft 135 kts 257°
2026-05-05 20:15 55.98797 37.52572 1586 ft 136 kts 257°
2026-05-05 20:16 55.98635 37.51483 1453 ft 137 kts 257°
2026-05-05 20:16 55.98399 37.49827 1296 ft 138 kts 256°
2026-05-05 20:16 55.98150 37.48149 1078 ft 140 kts 254°
2026-05-05 20:16 55.97903 37.46490 887 ft 139 kts 254°
2026-05-05 20:17 55.97641 37.44827 729 ft 139 kts 252°
2026-05-05 20:17 55.97384 37.43168 646 ft 136 kts 254°
2026-05-05 20:17 55.97197 37.41872 646 ft 68 kts 255°
2026-05-05 20:17 55.97149 37.41554 646 ft 0 kts 255°
2026-05-05 20:18 55.97138 37.41464 648 ft 13 kts 262°
2026-05-05 20:18 55.97197 37.41332 646 ft 18 kts 339°
2026-05-05 20:18 55.97328 37.41267 646 ft 21 kts 344°
2026-05-05 20:18 55.97478 37.41196 645 ft 23 kts 345°
2026-05-05 20:19 55.97612 37.41186 645 ft 17 kts 44°
2026-05-05 20:19 55.97655 37.41390 645 ft 19 kts 76°
2026-05-05 20:19 55.97706 37.41566 645 ft 12 kts 21°
2026-05-05 20:19 55.97794 37.41554 645 ft 14 kts 342°
2026-05-05 20:20 55.97883 37.41483 645 ft 14 kts 340°
2026-05-05 20:20 55.97951 37.41502 645 ft 9 kts 42°
2026-05-05 20:20 55.97969 37.41565 645 ft 0 kts 71°
2026-05-05 20:21 55.97970 37.41569 645 ft 1 kts 72°
2026-05-05 20:21 55.97975 37.41603 645 ft 0 kts 76°